[[{"header":{"parameterUnit":"m.s-1","parameterCategory":2,"la1":30.2991,"la2":30.254,"lo1":-89.0895,"lo2":-89.0444,"dy":0.0017,"dx":0.0017,"nx":28,"ny":28,"refTime":"2025-01-31T03:00:00:Z","depth":"0","parameterNumber":2,"parameterNumberName":"U-component_of_CURRENTS"},"data":[0,0,0,0,0,0,0,0,0,0,0,0,0,0,0,0,0,0,0,0,0,0,0,0,0,0,0,0,0,0,0,0,0,0,0,0,0,0,0,0,0,0,0,0,0,0,0,0,0,0,0,0,0,0,0,0,0,0,0.211,0.211,0,0.2131,0.2131,0.2132,0.2153,0.2153,0.2154,0.2154,0.2143,0.2143,0.2142,0,0,0,0,0,0,0,0,0,0,0,0,0,0.2122,0.2121,0.211,0.211,0.211,0.2131,0.2131,0.2132,0.2153,0.2153,0.2154,0.2154,0.2143,0.2143,0.2142,0,0,0,0,0,0,0,0,0,0,0,0,0,0.2127,0.2121,0.211,0.2124,0.2125,0.2131,0.2131,0.2132,0.2153,0.2153,0.2154,0.2154,0.2144,0.2143,0.2142,0.2128,0,0,0.2139,0.2139,0,0,0,0,0,0,0,0,0.2127,0.2126,0.2121,0.2123,0.2124,0.214,0.2132,0.2129,0.2153,0.2142,0.2154,0.2155,0.2139,0.2138,0.2142,0.2127,0.2127,0.2139,0.2139,0.2138,0.2138,0,0,0,0,0,0,0,0.2126,0.2126,0.2118,0.2122,0.2123,0.214,0.2141,0.2132,0.2137,0.2143,0.2145,0.2147,0.214,0.2143,0.2142,0.2127,0.2139,0.2139,0.2138,0.2138,0.2136,0.2136,0,0,0,0,0,0,0.2121,0.2125,0.2117,0.2119,0.2127,0.214,0.2141,0.2134,0.2138,0.2139,0.2147,0.2148,0.2144,0.2143,0.2141,0.2141,0.2138,0.2138,0.2137,0.2135,0.2136,0.2137,0,0,0,0,0,0,0.2121,0.212,0.2117,0.2123,0.2124,0.2139,0.2132,0.2135,0.2139,0.2141,0.2142,0.2149,0.2144,0.2142,0.2144,0.214,0.2137,0.2136,0.2135,0.2136,0.2136,0.2131,0,0,0,0,0,0,0.2121,0.212,0.2111,0.2123,0.2123,0.2119,0.2131,0.2135,0.214,0.2142,0.2143,0.2142,0.2144,0.2146,0.2143,0.2139,0.2136,0.2134,0.2135,0.2136,0.213,0.2131,0.2132,0,0,0,0,0,0.2122,0.211,0.211,0.211,0.2112,0.2119,0.2121,0.2134,0.214,0.214,0.2149,0.2142,0.215,0.2145,0.2142,0.2138,0.2134,0.2135,0.2136,0.213,0.2131,0.2132,0,0,0,0,0,0,0.2105,0.2112,0.2112,0.2101,0.2108,0.2123,0.2124,0.2131,0.2138,0.2141,0.2144,0.2145,0.2149,0.2145,0.214,0.2143,0.2142,0.2142,0.2138,0.2139,0.2139,0.2137,0.2135,0,0,0,0,0,0.2097,0.2095,0.2102,0.2093,0.2096,0.2108,0.2112,0.212,0.213,0.2134,0.2136,0.2141,0.215,0.2146,0.2152,0.2143,0.2152,0.2142,0.2142,0.2143,0.2141,0.215,0.2151,0.214,0.214,0.214,0,0,0.2087,0.2092,0.2089,0.209,0.2097,0.2102,0.2112,0.2117,0.2121,0.2129,0.2133,0.2144,0.2152,0.2154,0.2154,0.2148,0.2155,0.2144,0.2144,0.2142,0.2151,0.2152,0.2153,0.2141,0.2141,0.214,0,0,0.2078,0.207,0.2072,0.2077,0.2087,0.2094,0.2095,0.2107,0.2112,0.2115,0.2132,0.2142,0.2141,0.2152,0.2157,0.2162,0.2164,0.2163,0.2154,0.2163,0.2164,0.2164,0.2193,0.2196,0.2155,0.2155,0.2155,0,0.2066,0.2068,0.2072,0.2077,0.2081,0.209,0.2093,0.2098,0.2109,0.2111,0.2115,0.2134,0.2141,0.2152,0.2162,0.2162,0.2175,0.2147,0.2163,0.2164,0.2164,0.2193,0.2197,0.2155,0.2155,0.2155,0.2155,0,0.207,0.2065,0.2066,0.2076,0.2076,0.2081,0.2087,0.2088,0.2093,0.2099,0.2109,0.2125,0.2135,0.2141,0.2153,0.2163,0.2174,0.2168,0.2157,0.2165,0.2196,0.2199,0.2155,0.2155,0.2155,0.2155,0,0,0.2065,0.2068,0.207,0.2069,0.2077,0.2078,0.2079,0.2084,0.2085,0.2091,0.2094,0.2116,0.2123,0.213,0.2144,0.2153,0.218,0.2161,0.2162,0.2185,0.2215,0.2219,0.2224,0.2172,0.2172,0.2172,0.2239,0,0.207,0.2075,0.2076,0.2075,0.2077,0.2077,0.2077,0.2078,0.2081,0.2084,0.2095,0.2106,0.2118,0.2126,0.2136,0.2169,0.2187,0.2163,0.2208,0.221,0.2208,0.2227,0.2144,0.2195,0.2243,0.2244,0.2244,0,0.2086,0.2085,0.2085,0.2076,0.2076,0.2073,0.2071,0.2072,0.2074,0.2076,0.208,0.209,0.2111,0.2117,0.2166,0.215,0.2184,0.2208,0.2211,0.2216,0.222,0.2193,0.2201,0.2018,0.225,0.225,0.2249,0,0.2099,0.2094,0.2092,0.2091,0.2082,0.2076,0.2071,0.207,0.2069,0.2071,0.2071,0.2089,0.2102,0.2135,0.2189,0.2177,0.2247,0.2234,0.2273,0.2275,0.2214,0.2209,0.2043,0.2271,0.2271,0.2271,0.227,0,0.2115,0.2114,0.2095,0.2095,0.2089,0.2078,0.2072,0.2071,0.2065,0.2061,0.2067,0.207,0.2105,0.2146,0.2191,0.2251,0.225,0.228,0.229,0.2213,0.2207,0.2054,0.2024,0.2273,0.2273,0.2272,0.2272,0,0.214,0.2127,0.2125,0.2106,0.2097,0.2095,0.2073,0.207,0.2062,0.2057,0.2057,0.2065,0.2107,0.2161,0.2226,0.2255,0.2224,0.2337,0.2258,0.2256,0.2105,0.2081,0.1928,0.1897,0.2378,0.2379,0.2379,0,0.2158,0.2158,0.2137,0.2129,0.212,0.2106,0.2097,0.2078,0.207,0.2053,0.2054,0.208,0.2097,0.2197,0.2248,0.2329,0.2225,0.2307,0.2263,0.2084,0.2064,0.1948,0.1925,0.2191,0.2189,0.2188,0.2188,0,0.2187,0.2177,0.2166,0.2155,0.2139,0.2124,0.2104,0.2095,0.2069,0.2059,0.2047,0.2054,0.2115,0.2138,0.224,0.2278,0.2136,0.229,0.2106,0.1909,0.177,0.1748,0.2173,0.2179,0.218,0.218,0.2181,0.2181,0.2203,0.2204,0.2184,0.2174,0.2157,0.2138,0.212,0.2098,0.2079,0.2038,0.2042,0.2037,0.2039,0.2149,0.2135,0.2023,0.2081,0.196,0.1954,0.1855,0.1781,0.2204,0.2216,0.2217,0.2218,0.2218,0.2219,0,0.2211,0.2206,0.2202,0.2177,0.2163,0.215,0.212,0.2092,0.2064,0.2035,0.201,0.1979,0.193,0.1886,0.1806,0.1693,0.1595,0.1602,0.1377,0.1387,0.1747,0.1688,0.1581,0.1581,0.1582,0.1582,0.1582,0.1582,0.2209,0.2202,0.2201,0.2181,0.2166,0.2128,0.2109,0.2066,0.2041,0.1956,0.1912,0.1869,0.1745,0.1501,0.1277,0.1261,0.1096,0.1045,0.1047,0.1227,0.1256,0.1284,0.1211,0.1006,0.1006,0.0588,0.0585,0.0582]},{"header":{"parameterUnit":"m.s-1","parameterCategory":2,"la1":30.2991,"la2":30.254,"lo1":-89.0895,"lo2":-89.0444,"dy":0.0017,"dx":0.0017,"nx":28,"ny":28,"refTime":"2025-01-31T03:00:00:Z","depth":"0","parameterNumber":3,"parameterNumberName":"V-component_of_CURRENTS"},"data":[0,0,0,0,0,0,0,0,0,0,0,0,0,0,0,0,0,0,0,0,0,0,0,0,0,0,0,0,0,0,0,0,0,0,0,0,0,0,0,0,0,0,0,0,0,0,0,0,0,0,0,0,0,0,0,0,0,0,0.0309,0.0309,0,0.0301,0.0301,0.0301,0.03,0.03,0.03,0.0301,0.0243,0.0242,0.024,0,0,0,0,0,0,0,0,0,0,0,0,0,0.0203,0.0206,0.0309,0.0309,0.0309,0.0301,0.0301,0.0301,0.03,0.03,0.0301,0.0301,0.0244,0.0242,0.024,0,0,0,0,0,0,0,0,0,0,0,0,0,0.0227,0.0207,0.0309,0.0309,0.0309,0.0301,0.0301,0.0301,0.03,0.03,0.0301,0.0301,0.0245,0.0242,0.024,0.0218,0,0,0.0232,0.0231,0,0,0,0,0,0,0,0,0.0226,0.0231,0.0309,0.0309,0.0309,0.0303,0.0243,0.0271,0.03,0.0302,0.0301,0.0301,0.0259,0.0256,0.0252,0.0216,0.0213,0.0232,0.023,0.0229,0.0228,0,0,0,0,0,0,0,0.0224,0.023,0.0305,0.0309,0.0309,0.0268,0.0272,0.0248,0.0277,0.0302,0.0302,0.0303,0.0259,0.0255,0.0251,0.0212,0.0232,0.0229,0.0228,0.0227,0.0159,0.0158,0,0,0,0,0,0,0.0234,0.023,0.0305,0.0305,0.0268,0.027,0.0275,0.0304,0.0279,0.0276,0.0303,0.0303,0.0259,0.0254,0.0249,0.0225,0.0229,0.0227,0.0225,0.0159,0.0159,0.0158,0,0,0,0,0,0,0.0232,0.0242,0.0305,0.0265,0.0271,0.0273,0.0304,0.0303,0.03,0.028,0.0276,0.0301,0.0259,0.0252,0.0226,0.0223,0.0225,0.0223,0.0159,0.0159,0.0158,0.0176,0,0,0,0,0,0,0.023,0.0242,0.0259,0.0268,0.0274,0.0299,0.0304,0.0303,0.0301,0.0301,0.0277,0.0272,0.0259,0.023,0.0224,0.022,0.0221,0.016,0.0159,0.0159,0.0176,0.0176,0.0177,0,0,0,0,0,0.0226,0.025,0.026,0.0269,0.0301,0.0299,0.0298,0.0297,0.0301,0.0296,0.0281,0.0273,0.0223,0.0228,0.022,0.0215,0.016,0.0159,0.0159,0.0176,0.0176,0.0177,0,0,0,0,0,0,0.0214,0.0252,0.0264,0.03,0.0299,0.03,0.0296,0.0297,0.0283,0.0281,0.0265,0.0258,0.0237,0.0221,0.0227,0.0194,0.0191,0.0189,0.0206,0.0207,0.0207,0.0212,0.0219,0,0,0,0,0,0.022,0.025,0.0267,0.0293,0.0294,0.0294,0.0292,0.0293,0.0285,0.028,0.0264,0.0246,0.0228,0.0214,0.0195,0.0171,0.0172,0.0164,0.0164,0.0165,0.0164,0.0163,0.0164,0.0156,0.0156,0.0156,0,0,0.0222,0.0247,0.0263,0.0291,0.0292,0.0287,0.0294,0.0292,0.0286,0.0273,0.0256,0.0245,0.0222,0.0202,0.019,0.0187,0.0169,0.0164,0.0165,0.0163,0.0163,0.0164,0.0165,0.0156,0.0156,0.0156,0,0,0.0222,0.0262,0.0274,0.0275,0.0279,0.0281,0.0281,0.028,0.0278,0.0261,0.0255,0.0243,0.0209,0.0199,0.0187,0.0175,0.0174,0.0169,0.017,0.0171,0.0172,0.0172,0.0186,0.0187,0.0166,0.0166,0.0166,0,0.0218,0.0246,0.027,0.0271,0.027,0.0278,0.0271,0.0269,0.0259,0.0256,0.0255,0.0226,0.0208,0.019,0.0188,0.0177,0.0181,0.0172,0.0172,0.0173,0.0174,0.0187,0.0189,0.0167,0.0167,0.0167,0.0167,0,0.0216,0.0233,0.0236,0.0249,0.0249,0.0246,0.0249,0.0247,0.0247,0.0246,0.0234,0.0219,0.0204,0.0198,0.0187,0.0181,0.0185,0.0177,0.0175,0.0176,0.0189,0.0191,0.0168,0.0168,0.0168,0.0167,0,0,0.0222,0.0233,0.0233,0.023,0.0238,0.0237,0.0233,0.0231,0.0233,0.0226,0.0227,0.0203,0.0208,0.0195,0.0188,0.0186,0.0197,0.0183,0.0182,0.0202,0.0209,0.0248,0.0253,0.0191,0.0191,0.0191,0.0222,0,0.0207,0.0199,0.0214,0.0203,0.0196,0.021,0.0208,0.021,0.0215,0.022,0.0217,0.0213,0.0203,0.0202,0.0199,0.0203,0.02,0.019,0.0199,0.02,0.0239,0.0255,0.0314,0.0349,0.0224,0.0224,0.0224,0,0.0193,0.0192,0.0175,0.0181,0.0181,0.0178,0.0186,0.0187,0.0201,0.0207,0.0212,0.0217,0.0221,0.0211,0.0218,0.0214,0.0208,0.0209,0.021,0.0239,0.0241,0.0325,0.0357,0.0305,0.0227,0.0226,0.0226,0,0.0166,0.0166,0.0151,0.0151,0.0158,0.0158,0.0166,0.0179,0.0186,0.0205,0.0218,0.0225,0.0239,0.0233,0.0248,0.0229,0.0266,0.0239,0.0265,0.0268,0.0316,0.0324,0.0305,0.023,0.023,0.023,0.023,0,0.0142,0.0131,0.0137,0.0128,0.0122,0.0138,0.0139,0.0152,0.0177,0.0191,0.0211,0.0234,0.0244,0.0271,0.0263,0.0292,0.0279,0.0274,0.0279,0.0325,0.0333,0.0287,0.0272,0.0231,0.0231,0.0231,0.023,0,0.0105,0.0108,0.0095,0.0102,0.0104,0.0101,0.0123,0.0129,0.0159,0.0183,0.0192,0.0247,0.0306,0.0327,0.0343,0.0324,0.034,0.034,0.0406,0.0418,0.0381,0.0366,0.0388,0.0377,0.0367,0.0368,0.0369,0,0.0081,0.007,0.0071,0.0067,0.0069,0.0071,0.0076,0.0109,0.0123,0.0192,0.0205,0.0284,0.0354,0.0423,0.044,0.0464,0.0409,0.0479,0.0442,0.0396,0.0383,0.0365,0.0351,0.0517,0.0519,0.0521,0.0522,0,0.0041,0.0044,0.0035,0.0029,0.003,0.0037,0.0051,0.0064,0.0114,0.0154,0.0235,0.0309,0.0428,0.0541,0.0589,0.0566,0.0481,0.0513,0.0447,0.0489,0.0488,0.0475,0.048,0.0537,0.0536,0.0535,0.0534,0.0533,0.0011,0.0002,-0.0003,-0.0008,-0.0004,0.0011,0.0029,0.0062,0.0107,0.0212,0.0263,0.0445,0.0624,0.0737,0.0649,0.0611,0.0593,0.0581,0.0566,0.0548,0.0542,0.0587,0.0659,0.0658,0.0657,0.0657,0.0656,0,-0.0024,-0.0027,-0.0035,-0.0032,-0.0026,-0.0013,0.002,0.0066,0.0135,0.0284,0.0388,0.0724,0.0806,0.0853,0.0861,0.0719,0.0613,0.0626,0.0597,0.0575,0.0604,0.0612,0.07,0.0701,0.0701,0.0701,0.0701,0.0701,-0.0044,-0.006,-0.0056,-0.0051,-0.004,-0.0005,0.0025,0.011,0.0235,0.0514,0.0772,0.0959,0.1215,0.1013,0.0853,0.0748,0.0624,0.0614,0.0529,0.0526,0.0519,0.0512,0.0512,0.0578,0.0578,0.0512,0.0512,0.0511]}],[{"header":{"parameterUnit":"m.s-1","parameterCategory":2,"la1":30.2991,"la2":30.254,"lo1":-89.0895,"lo2":-89.0444,"dy":0.0017,"dx":0.0017,"nx":28,"ny":28,"refTime":"2025-01-31T03:00:00:Z","depth":"2","parameterNumber":2,"parameterNumberName":"U-component_of_CURRENTS"},"data":[0,0,0,0,0,0,0,0,0,0,0,0,0,0,0,0,0,0,0,0,0,0,0,0,0,0,0,0,0,0,0,0,0,0,0,0,0,0,0,0,0,0,0,0,0,0,0,0,0,0,0,0,0,0,0,0,0,0,0.0699,0.07,0,0.0711,0.0711,0.0711,0.0712,0.0712,0.0712,0.0712,0.0696,0.0696,0.0696,0,0,0,0,0,0,0,0,0,0,0,0,0,0.0656,0.0657,0.0699,0.07,0.07,0.0711,0.0711,0.0711,0.0712,0.0712,0.0712,0.0712,0.0697,0.0696,0.0695,0,0,0,0,0,0,0,0,0,0,0,0,0,0.067,0.0657,0.0699,0.0703,0.0704,0.0711,0.0711,0.0711,0.0712,0.0712,0.0712,0.0712,0.0697,0.0696,0.0695,0.0689,0,0,0.0693,0.0693,0,0,0,0,0,0,0,0,0.067,0.0672,0.0702,0.0703,0.0704,0.0712,0.069,0.0703,0.0712,0.0707,0.0712,0.0712,0.07,0.0699,0.0699,0.0688,0.0688,0.0693,0.0693,0.0692,0.0692,0,0,0,0,0,0,0,0.0669,0.0671,0.0702,0.0703,0.0704,0.0698,0.07,0.0693,0.0701,0.0707,0.0708,0.0713,0.07,0.07,0.0698,0.0688,0.0693,0.0693,0.0692,0.0692,0.0709,0.071,0,0,0,0,0,0,0.0673,0.067,0.0702,0.0703,0.0689,0.0699,0.0701,0.0708,0.0702,0.0702,0.0712,0.0713,0.0701,0.0699,0.0698,0.0722,0.0692,0.0692,0.0691,0.0708,0.0709,0.071,0,0,0,0,0,0,0.0672,0.0675,0.0701,0.0688,0.0691,0.07,0.0707,0.0708,0.0715,0.0706,0.0705,0.072,0.0701,0.0699,0.0707,0.072,0.0691,0.0691,0.0707,0.0708,0.071,0.0749,0,0,0,0,0,0,0.067,0.0675,0.0683,0.0689,0.0692,0.0708,0.0707,0.0708,0.0718,0.0719,0.0712,0.071,0.0701,0.0709,0.0707,0.0718,0.069,0.0706,0.0708,0.0709,0.0746,0.0751,0.0756,0,0,0,0,0,0.0669,0.0675,0.0683,0.0687,0.0703,0.0709,0.071,0.0714,0.0719,0.0721,0.0726,0.0711,0.0718,0.0709,0.0706,0.0718,0.0705,0.0707,0.0709,0.0744,0.075,0.0755,0,0,0,0,0,0,0.0659,0.0676,0.0685,0.0697,0.0706,0.071,0.0714,0.072,0.0726,0.0728,0.0721,0.072,0.0732,0.0721,0.0712,0.0729,0.0709,0.0711,0.0737,0.0742,0.0747,0.0742,0.069,0,0,0,0,0,0.0662,0.0673,0.0687,0.0697,0.0702,0.0711,0.0716,0.0721,0.0727,0.0729,0.0728,0.073,0.0737,0.0737,0.0736,0.0743,0.0753,0.075,0.0755,0.0759,0.0754,0.0794,0.0802,0.0717,0.0717,0.0717,0,0,0.0661,0.0673,0.0678,0.0696,0.0702,0.0708,0.0714,0.0723,0.0731,0.0726,0.0736,0.0744,0.0743,0.0755,0.0759,0.0748,0.0791,0.0761,0.0765,0.0758,0.0797,0.0805,0.0813,0.0718,0.0718,0.0718,0,0,0.0654,0.0675,0.0677,0.0686,0.0702,0.071,0.0716,0.0727,0.0736,0.075,0.0755,0.0774,0.0774,0.0783,0.0786,0.0815,0.0815,0.0815,0.0832,0.0871,0.0878,0.0885,0.0921,0.093,0.0816,0.0816,0.0816,0,0.0652,0.0657,0.0678,0.0681,0.0688,0.0712,0.0713,0.0728,0.0742,0.0756,0.0757,0.0789,0.0788,0.0815,0.0826,0.0824,0.0847,0.0811,0.0878,0.0884,0.089,0.0925,0.0935,0.0818,0.0818,0.0818,0.0817,0,0.0641,0.0649,0.0651,0.0666,0.068,0.0684,0.071,0.0728,0.0748,0.0767,0.0803,0.0816,0.0835,0.0844,0.0842,0.0885,0.0888,0.0881,0.0864,0.0901,0.0936,0.0946,0.0821,0.082,0.082,0.0819,0,0,0.0618,0.0639,0.0638,0.0642,0.0672,0.0677,0.0706,0.0735,0.0756,0.0789,0.082,0.0849,0.0869,0.0875,0.0885,0.0918,0.0984,0.0918,0.0919,0.0954,0.1078,0.1011,0.1015,0.0995,0.0996,0.0998,0.109,0,0.06,0.0596,0.0618,0.0621,0.0621,0.0661,0.0683,0.072,0.0756,0.0795,0.0841,0.0868,0.0878,0.0891,0.0933,0.097,0.101,0.096,0.1035,0.1037,0.0974,0.1024,0.0874,0.0937,0.1099,0.1101,0.1102,0,0.0572,0.0575,0.057,0.0595,0.0601,0.0614,0.066,0.0683,0.0754,0.0785,0.084,0.0875,0.0938,0.0933,0.1036,0.1007,0.1043,0.1073,0.1077,0.1003,0.0988,0.0923,0.0948,0.1118,0.1116,0.1115,0.1114,0,0.0526,0.054,0.0533,0.0541,0.0576,0.0592,0.0618,0.068,0.0706,0.0779,0.0809,0.0895,0.0934,0.1006,0.1078,0.1062,0.1189,0.1172,0.1149,0.1145,0.1023,0.1005,0.1238,0.1238,0.1238,0.1238,0.1237,0,0.0488,0.0483,0.0512,0.0507,0.0515,0.0555,0.0579,0.0621,0.0684,0.0723,0.0798,0.0844,0.0954,0.1039,0.1099,0.1162,0.1212,0.1159,0.1166,0.1033,0.1015,0.1167,0.1158,0.1241,0.124,0.124,0.1239,0,0.0433,0.0449,0.0443,0.0475,0.0489,0.0494,0.0548,0.0572,0.0632,0.0686,0.0708,0.0824,0.0936,0.1044,0.1166,0.1172,0.1243,0.1248,0.1083,0.1067,0.1168,0.116,0.1229,0.1227,0.1226,0.1225,0.1224,0,0.0402,0.039,0.0411,0.0415,0.043,0.0451,0.0473,0.0537,0.0569,0.0672,0.07,0.0819,0.0903,0.1059,0.1084,0.117,0.1247,0.1077,0.1002,0.1169,0.1169,0.1162,0.1156,0.0872,0.0868,0.0865,0.0862,0,0.0344,0.0351,0.035,0.0361,0.0377,0.0399,0.044,0.0459,0.0542,0.059,0.0682,0.0753,0.0862,0.0886,0.0971,0.0996,0.1048,0.1013,0.1253,0.0882,0.0835,0.0834,0.0839,0.0835,0.0838,0.084,0.0841,0.0842,0.0302,0.0292,0.0299,0.0313,0.0331,0.0363,0.038,0.0431,0.048,0.0565,0.0634,0.0674,0.0688,0.072,0.0774,0.0805,0.087,0.0841,0.085,0.0862,0.0789,0.074,0.071,0.0712,0.0714,0.0715,0.0716,0,0.0258,0.0263,0.026,0.0282,0.0297,0.0329,0.037,0.0383,0.0438,0.0487,0.0556,0.0419,0.0467,0.0535,0.0514,0.0541,0.0528,0.0557,0.0529,0.0554,0.0576,0.049,0.0332,0.0331,0.0331,0.0331,0,0,0.0235,0.0225,0.0233,0.0254,0.0279,0.0301,0.0326,0.0343,0.0351,0.0324,0.03,0.0372,0.0392,0.0289,0.0329,0.0345,0.0444,0.0323,0.0614,0.0597,0.0619,0.0707,0.0596,0,0,0,0,0]},{"header":{"parameterUnit":"m.s-1","parameterCategory":2,"la1":30.2991,"la2":30.254,"lo1":-89.0895,"lo2":-89.0444,"dy":0.0017,"dx":0.0017,"nx":28,"ny":28,"refTime":"2025-01-31T03:00:00:Z","depth":"2","parameterNumber":3,"parameterNumberName":"V-component_of_CURRENTS"},"data":[0,0,0,0,0,0,0,0,0,0,0,0,0,0,0,0,0,0,0,0,0,0,0,0,0,0,0,0,0,0,0,0,0,0,0,0,0,0,0,0,0,0,0,0,0,0,0,0,0,0,0,0,0,0,0,0,0,0,0.0052,0.0052,0,0.0049,0.0049,0.0049,0.002,0.0019,0.0019,0.0018,-0.0013,-0.0014,-0.0014,0,0,0,0,0,0,0,0,0,0,0,0,0,0.0026,0.0026,0.0052,0.0052,0.0052,0.0049,0.0049,0.0049,0.002,0.0019,0.0018,0.0018,-0.0013,-0.0014,-0.0014,0,0,0,0,0,0,0,0,0,0,0,0,0,0.0031,0.0027,0.0052,0.0037,0.0036,0.0049,0.0049,0.0049,0.002,0.0019,0.0018,0.0017,-0.0013,-0.0014,-0.0014,0.0007,0,0,-0.0014,-0.0015,0,0,0,0,0,0,0,0,0.0031,0.0032,0.0039,0.0038,0.0037,0.0033,0.0028,0.0033,0.0021,0.0026,0.0018,0.0017,0.0,-0.0001,0.0001,0.0005,0.0004,-0.0014,-0.0015,-0.0015,-0.0015,0,0,0,0,0,0,0,0.0031,0.0032,0.0051,0.0039,0.0038,0.0028,0.0028,0.0029,0.0019,0.0026,0.0024,0.0023,-0.0001,0.0002,0.0,0.0003,-0.0014,-0.0015,-0.0015,-0.0015,-0.0021,-0.0021,0,0,0,0,0,0,0.0033,0.0032,0.0051,0.0051,0.0031,0.0029,0.0029,0.0036,0.002,0.0016,0.0024,0.0022,0.0003,0.0001,-0.0001,0.0006,-0.0015,-0.0015,-0.0015,-0.0021,-0.0021,-0.0021,0,0,0,0,0,0,0.0032,0.0035,0.0051,0.0041,0.0042,0.0031,0.0039,0.0036,0.003,0.0019,0.0015,0.0019,0.0002,-0.0001,-0.0007,0.0005,-0.0015,-0.0015,-0.0021,-0.0021,-0.0021,0.003,0,0,0,0,0,0,0.0032,0.0035,0.004,0.0041,0.0043,0.0065,0.004,0.0037,0.0032,0.0028,0.0013,0.001,0.0001,-0.0006,-0.0007,0.0004,-0.0015,-0.0021,-0.0021,-0.0021,0.0028,0.0032,0.0035,0,0,0,0,0,0.0031,0.005,0.0041,0.0043,0.0051,0.0066,0.0066,0.0054,0.0032,0.0041,0.002,0.001,-0.0008,-0.0006,-0.0007,0.0004,-0.0021,-0.0021,-0.0021,0.0027,0.0031,0.0034,0,0,0,0,0,0,0.004,0.0049,0.0039,0.0058,0.0062,0.0061,0.0068,0.0054,0.0045,0.0035,0.0016,0.0012,0.0009,-0.0003,-0.0001,-0.0001,-0.0018,-0.0018,0.0019,0.0022,0.0025,0.0039,-0.0016,0,0,0,0,0,0.0046,0.0063,0.0063,0.0079,0.0081,0.0071,0.0073,0.0064,0.0057,0.0051,0.0037,0.0019,0.0011,0.0008,-0.0,0.0007,-0.0004,0.0009,0.0013,0.0016,0.0024,0.0012,0.0015,-0.0021,-0.0021,-0.0021,0,0,0.0052,0.006,0.0068,0.0082,0.0081,0.0098,0.007,0.0077,0.0086,0.005,0.0054,0.0032,0.0014,0.0018,0.0016,0.0009,0.0021,0.0015,0.0018,0.0025,0.0012,0.0016,0.0019,-0.0022,-0.0022,-0.0022,0,0,0.0083,0.0082,0.0107,0.0114,0.0118,0.0116,0.0116,0.0112,0.0105,0.0107,0.0077,0.0064,0.0054,0.0047,0.004,0.0056,0.0036,0.0044,0.0077,0.0065,0.0069,0.0071,0.007,0.0072,0.0048,0.0048,0.0048,0,0.0084,0.0119,0.0115,0.0141,0.0149,0.0125,0.0148,0.0146,0.0137,0.0137,0.0113,0.009,0.0072,0.008,0.0078,0.0067,0.0053,0.0068,0.0071,0.0073,0.0075,0.0073,0.0075,0.0051,0.0051,0.005,0.005,0,0.0136,0.0158,0.0174,0.0197,0.0207,0.0223,0.0218,0.0219,0.0199,0.0192,0.0186,0.0157,0.0142,0.0132,0.011,0.0114,0.0098,0.0076,0.0067,0.0083,0.0079,0.008,0.0054,0.0054,0.0053,0.0052,0,0,0.0144,0.0199,0.0201,0.0221,0.0236,0.0249,0.0266,0.0278,0.0287,0.0266,0.0277,0.025,0.0218,0.0208,0.0174,0.0163,0.0163,0.0125,0.0123,0.0133,0.014,0.0158,0.0161,0.0135,0.0136,0.0136,0.0135,0,0.0178,0.0241,0.0257,0.0302,0.0329,0.032,0.0341,0.0345,0.0337,0.0341,0.0308,0.03,0.0252,0.0236,0.0219,0.0177,0.0166,0.0166,0.0114,0.0114,0.0135,0.0163,0.0141,0.0141,0.0136,0.0136,0.0136,0,0.0215,0.0255,0.0311,0.0356,0.0365,0.0383,0.0404,0.042,0.0422,0.0414,0.0398,0.0367,0.0348,0.0297,0.0248,0.0246,0.0196,0.0164,0.0162,0.0164,0.0134,0.0121,0.0143,0.0138,0.0138,0.0137,0.0137,0,0.0222,0.0286,0.0332,0.0348,0.0395,0.0408,0.0423,0.0435,0.0449,0.0452,0.0456,0.0429,0.0408,0.0351,0.0283,0.0257,0.0234,0.0191,0.0167,0.0167,0.0133,0.0131,0.0157,0.0157,0.0157,0.0157,0.0157,0,0.0251,0.0283,0.0336,0.0359,0.0401,0.0422,0.0454,0.0466,0.0483,0.0504,0.0482,0.0495,0.0416,0.0391,0.0317,0.0262,0.026,0.0187,0.0172,0.0151,0.0151,0.0129,0.0126,0.0157,0.0157,0.0157,0.0157,0,0.0249,0.0287,0.0338,0.0393,0.0405,0.0428,0.0465,0.0491,0.0504,0.0531,0.0531,0.054,0.0521,0.0458,0.0383,0.0313,0.0256,0.0232,0.0224,0.0209,0.0185,0.0184,0.0202,0.0203,0.0203,0.0204,0.0204,0,0.0256,0.0287,0.035,0.0376,0.0397,0.0432,0.0458,0.0488,0.0517,0.0562,0.0581,0.0587,0.0619,0.055,0.0424,0.0332,0.0301,0.0238,0.0187,0.0208,0.0192,0.019,0.0188,0.0158,0.0158,0.0158,0.0158,0,0.0271,0.029,0.0336,0.0384,0.0417,0.0462,0.05,0.0532,0.0571,0.0619,0.0691,0.0732,0.0667,0.059,0.0465,0.0383,0.0255,0.0236,0.0261,0.0158,0.0168,0.0152,0.0151,0.0158,0.0158,0.0158,0.0158,0.0158,0.0271,0.0305,0.0359,0.0405,0.044,0.0495,0.0552,0.0601,0.0676,0.0784,0.08,0.0859,0.0706,0.0569,0.0444,0.0286,0.028,0.0196,0.0195,0.0194,0.0197,0.0209,0.0207,0.0208,0.0208,0.0208,0.0208,0,0.0284,0.0327,0.0377,0.0448,0.0504,0.0504,0.059,0.0682,0.0794,0.0868,0.0968,0.083,0.0748,0.0584,0.0345,0.0219,0.0187,0.018,0.0149,0.0149,0.0149,0.0149,0.0147,0.0147,0.0146,0.0146,0,0,0.0298,0.0356,0.0397,0.0497,0.0538,0.0641,0.0703,0.0823,0.0908,0.1006,0.1006,0.1048,0.079,0.0598,0.0414,0.0291,0.0263,0.027,0.0327,0.0314,0.0316,0.0159,0.0159,0,0,0,0,0]}],[{"header":{"parameterUnit":"m.s-1","parameterCategory":2,"la1":30.2991,"la2":30.254,"lo1":-89.0895,"lo2":-89.0444,"dy":0.0017,"dx":0.0017,"nx":28,"ny":28,"refTime":"2025-01-31T03:00:00:Z","depth":"4","parameterNumber":2,"parameterNumberName":"U-component_of_CURRENTS"},"data":[0,0,0,0,0,0,0,0,0,0,0,0,0,0,0,0,0,0,0,0,0,0,0,0,0,0,0,0,0,0,0,0,0,0,0,0,0,0,0,0,0,0,0,0,0,0,0,0,0,0,0,0,0,0,0,0,0,0,-0.0295,-0.0294,0,-0.0243,-0.0242,-0.0242,-0.0177,-0.0176,-0.0175,-0.0174,-0.0119,-0.0119,-0.0119,0,0,0,0,0,0,0,0,0,0,0,0,0,-0.0354,-0.0354,-0.0295,-0.0294,-0.0293,-0.0243,-0.0242,-0.0241,-0.0177,-0.0176,-0.0174,-0.0173,-0.012,-0.0119,-0.0119,0,0,0,0,0,0,0,0,0,0,0,0,0,-0.0319,-0.0353,-0.0295,-0.0254,-0.025,-0.0243,-0.0242,-0.0241,-0.0177,-0.0176,-0.0174,-0.0172,-0.012,-0.0119,-0.0119,-0.0148,0,0,-0.0117,-0.0116,0,0,0,0,0,0,0,0,-0.0321,-0.0317,-0.0261,-0.0257,-0.0252,-0.0214,-0.0243,-0.021,-0.0178,-0.0206,-0.0174,-0.0172,-0.0151,-0.0148,-0.0143,-0.0146,-0.0144,-0.0117,-0.0116,-0.0116,-0.0116,0,0,0,0,0,0,0,-0.0324,-0.0319,-0.0275,-0.0261,-0.0255,-0.0244,-0.0237,-0.0237,-0.019,-0.0204,-0.0198,-0.0192,-0.0149,-0.0144,-0.0142,-0.0143,-0.0117,-0.0116,-0.0116,-0.0116,-0.0105,-0.0105,0,0,0,0,0,0,-0.0329,-0.0321,-0.0277,-0.0274,-0.0282,-0.0244,-0.0236,-0.0229,-0.0189,-0.0182,-0.0193,-0.0189,-0.0146,-0.0142,-0.014,-0.0108,-0.0116,-0.0115,-0.0115,-0.0104,-0.0105,-0.0105,0,0,0,0,0,0,-0.033,-0.0326,-0.0279,-0.0295,-0.0288,-0.0245,-0.0237,-0.0228,-0.0199,-0.0181,-0.0173,-0.0169,-0.0145,-0.014,-0.0121,-0.0108,-0.0115,-0.0115,-0.0104,-0.0105,-0.0105,-0.0087,0,0,0,0,0,0,-0.0332,-0.0326,-0.0321,-0.0296,-0.0288,-0.0265,-0.0238,-0.0229,-0.0198,-0.0192,-0.0159,-0.0153,-0.0143,-0.0122,-0.0121,-0.0107,-0.0114,-0.0104,-0.0104,-0.0105,-0.0088,-0.0087,-0.0086,0,0,0,0,0,-0.0335,-0.0335,-0.0321,-0.0316,-0.0282,-0.0265,-0.026,-0.0224,-0.0199,-0.019,-0.0164,-0.0153,-0.0122,-0.0122,-0.012,-0.0106,-0.0104,-0.0104,-0.0105,-0.0088,-0.0087,-0.0086,0,0,0,0,0,0,-0.0357,-0.0327,-0.0312,-0.0302,-0.028,-0.0253,-0.0243,-0.0217,-0.0191,-0.0177,-0.0156,-0.015,-0.0129,-0.0126,-0.0127,-0.0105,-0.0111,-0.0111,-0.0099,-0.0098,-0.0097,-0.0087,-0.0114,0,0,0,0,0,-0.0361,-0.0352,-0.0323,-0.0315,-0.0304,-0.0271,-0.0257,-0.023,-0.0205,-0.019,-0.0162,-0.0142,-0.0135,-0.0121,-0.0114,-0.0105,-0.0114,-0.0095,-0.0094,-0.0093,-0.0085,-0.0096,-0.0096,-0.0105,-0.0105,-0.0105,0,0,-0.0369,-0.0351,-0.0346,-0.0319,-0.03,-0.0285,-0.0258,-0.0232,-0.0213,-0.0192,-0.0153,-0.0138,-0.0133,-0.0117,-0.0108,-0.0107,-0.0099,-0.0094,-0.0093,-0.0085,-0.0096,-0.0095,-0.0095,-0.0105,-0.0105,-0.0105,0,0,-0.0382,-0.0363,-0.0357,-0.034,-0.0306,-0.0288,-0.0276,-0.0235,-0.0208,-0.0177,-0.0159,-0.0137,-0.0112,-0.0106,-0.0103,-0.0098,-0.0097,-0.0089,-0.007,-0.0081,-0.008,-0.0079,-0.0101,-0.0102,-0.0084,-0.0084,-0.0084,0,-0.039,-0.0376,-0.0354,-0.0342,-0.0325,-0.0287,-0.0273,-0.0251,-0.0204,-0.0185,-0.016,-0.0121,-0.0111,-0.0104,-0.0089,-0.0095,-0.0099,-0.0072,-0.0079,-0.0078,-0.0078,-0.01,-0.0102,-0.0084,-0.0084,-0.0084,-0.0084,0,-0.0395,-0.038,-0.0376,-0.0348,-0.0331,-0.0313,-0.0279,-0.025,-0.0207,-0.0179,-0.0142,-0.0124,-0.0092,-0.0091,-0.008,-0.007,-0.0075,-0.008,-0.0079,-0.0075,-0.01,-0.0102,-0.0082,-0.0083,-0.0083,-0.0083,0,0,-0.0417,-0.0385,-0.0382,-0.0363,-0.0327,-0.031,-0.0286,-0.0251,-0.0222,-0.0176,-0.0142,-0.0117,-0.008,-0.0075,-0.0061,-0.0064,-0.0064,-0.0055,-0.0056,-0.0072,-0.0087,-0.0081,-0.0083,-0.006,-0.006,-0.006,-0.0109,0,-0.0422,-0.0404,-0.0386,-0.0361,-0.0343,-0.0308,-0.0286,-0.025,-0.021,-0.017,-0.0146,-0.0103,-0.0084,-0.0047,-0.005,-0.0059,-0.0065,-0.005,-0.0091,-0.0093,-0.0084,-0.0084,-0.006,-0.0111,-0.0112,-0.0112,-0.0112,0,-0.0428,-0.0411,-0.039,-0.0349,-0.0338,-0.0311,-0.026,-0.0232,-0.0187,-0.0151,-0.0109,-0.008,-0.0058,-0.0042,-0.0058,-0.0042,-0.0051,-0.007,-0.0073,-0.007,-0.0089,-0.0114,-0.0116,-0.0116,-0.0115,-0.0115,-0.0115,0,-0.0444,-0.0412,-0.0391,-0.0378,-0.0331,-0.03,-0.026,-0.0213,-0.0183,-0.0119,-0.0092,-0.0065,-0.0039,-0.0049,-0.0071,-0.0046,-0.0118,-0.0096,-0.0113,-0.0114,-0.0112,-0.0112,-0.0113,-0.0113,-0.0113,-0.0113,-0.0113,0,-0.0443,-0.0435,-0.0385,-0.0371,-0.0324,-0.0285,-0.0228,-0.0188,-0.0139,-0.0124,-0.0061,-0.0068,-0.0033,-0.0069,-0.0084,-0.0116,-0.0129,-0.0107,-0.0121,-0.0106,-0.0105,-0.0115,-0.0114,-0.0115,-0.0115,-0.0114,-0.0114,0,-0.046,-0.0437,-0.0414,-0.0356,-0.0326,-0.0281,-0.0197,-0.0173,-0.0112,-0.0095,-0.0069,-0.0058,-0.008,-0.0092,-0.0131,-0.0131,-0.0169,-0.0186,-0.0193,-0.0208,-0.0148,-0.0146,-0.0167,-0.0167,-0.0167,-0.0167,-0.0168,0,-0.0462,-0.0452,-0.0401,-0.0374,-0.0335,-0.0261,-0.0225,-0.0153,-0.0143,-0.0124,-0.0144,-0.0131,-0.0131,-0.0181,-0.0195,-0.0212,-0.0211,-0.0223,-0.0141,-0.0139,-0.0151,-0.0149,-0.0147,-0.0168,-0.0168,-0.0168,-0.0168,0,-0.0465,-0.0457,-0.0433,-0.0383,-0.0334,-0.0292,-0.0238,-0.0212,-0.0171,-0.0146,-0.0169,-0.0154,-0.0189,-0.019,-0.0201,-0.0229,-0.02,-0.0222,-0.022,-0.0144,-0.014,-0.0151,-0.0149,-0.0168,-0.0168,-0.0168,-0.0168,0,-0.0469,-0.0452,-0.0427,-0.037,-0.0342,-0.0316,-0.0276,-0.0254,-0.0216,-0.0184,-0.0229,-0.0223,-0.0225,-0.0209,-0.0259,-0.0236,-0.0195,-0.0168,-0.0168,-0.0168,-0.0141,-0.0135,-0.0171,0,0,0,0,0,-0.0445,-0.0424,-0.0409,-0.0349,-0.0344,-0.0322,-0.0297,-0.0272,-0.0238,-0.0245,-0.0209,-0.0237,-0.022,-0.0243,-0.0209,-0.0254,-0.0207,-0.0216,-0.018,-0.0169,-0.0169,-0.0134,0,0,0,0,0,0,-0.0425,-0.0414,-0.0405,-0.0359,-0.0324,-0.0312,-0.0295,-0.0283,-0.0271,-0.0243,-0.0237,-0.0222,-0.0217,-0.0227,-0.0205,-0.0205,-0.0175,-0.0212,-0.0211,-0.0169,-0.0169,-0.0169,-0.0133,0,0,0,0,0]},{"header":{"parameterUnit":"m.s-1","parameterCategory":2,"la1":30.2991,"la2":30.254,"lo1":-89.0895,"lo2":-89.0444,"dy":0.0017,"dx":0.0017,"nx":28,"ny":28,"refTime":"2025-01-31T03:00:00:Z","depth":"4","parameterNumber":3,"parameterNumberName":"V-component_of_CURRENTS"},"data":[0,0,0,0,0,0,0,0,0,0,0,0,0,0,0,0,0,0,0,0,0,0,0,0,0,0,0,0,0,0,0,0,0,0,0,0,0,0,0,0,0,0,0,0,0,0,0,0,0,0,0,0,0,0,0,0,0,0,0.0147,0.0147,0,0.0149,0.0149,0.0149,0.0152,0.0152,0.0152,0.0152,0.0147,0.0147,0.0147,0,0,0,0,0,0,0,0,0,0,0,0,0,0.0151,0.0151,0.0147,0.0147,0.0147,0.0149,0.0149,0.0149,0.0152,0.0152,0.0152,0.0152,0.0148,0.0147,0.0147,0,0,0,0,0,0,0,0,0,0,0,0,0,0.015,0.0151,0.0147,0.0149,0.0149,0.0149,0.0149,0.0149,0.0152,0.0152,0.0152,0.0152,0.0148,0.0147,0.0147,0.0142,0,0,0.0146,0.0146,0,0,0,0,0,0,0,0,0.015,0.015,0.0148,0.0149,0.0149,0.0151,0.0149,0.0147,0.0152,0.015,0.0152,0.0152,0.0148,0.0148,0.0147,0.0142,0.0142,0.0146,0.0146,0.0146,0.0146,0,0,0,0,0,0,0,0.0151,0.015,0.0147,0.0149,0.0149,0.0152,0.0152,0.0149,0.0148,0.015,0.0151,0.0152,0.0148,0.0148,0.0147,0.0142,0.0146,0.0146,0.0145,0.0145,0.0122,0.0121,0,0,0,0,0,0,0.0151,0.015,0.0147,0.0147,0.0151,0.0152,0.0152,0.015,0.0148,0.0148,0.0152,0.0152,0.0148,0.0148,0.0147,0.0135,0.0146,0.0145,0.0145,0.0122,0.0121,0.0121,0,0,0,0,0,0,0.0151,0.015,0.0147,0.0149,0.0149,0.0152,0.0149,0.015,0.0147,0.0149,0.0149,0.0148,0.0148,0.0147,0.0139,0.0135,0.0145,0.0145,0.0122,0.0122,0.0121,0.0114,0,0,0,0,0,0,0.0151,0.015,0.0146,0.0149,0.0149,0.014,0.0149,0.015,0.0148,0.0148,0.0146,0.0146,0.0148,0.0139,0.0139,0.0135,0.0145,0.0123,0.0122,0.0121,0.0115,0.0113,0.0112,0,0,0,0,0,0.0151,0.0143,0.0146,0.0146,0.0144,0.014,0.014,0.0142,0.0147,0.0141,0.0142,0.0146,0.0134,0.0139,0.0138,0.0134,0.0123,0.0122,0.0121,0.0116,0.0114,0.0112,0,0,0,0,0,0,0.014,0.0142,0.0146,0.0138,0.0138,0.014,0.0138,0.0139,0.0135,0.0138,0.014,0.0139,0.0131,0.0131,0.0136,0.0124,0.0129,0.0128,0.0125,0.0123,0.0122,0.0126,0.0144,0,0,0,0,0,0.0137,0.0134,0.0135,0.0129,0.013,0.0134,0.0133,0.0135,0.0134,0.0133,0.0133,0.0131,0.0126,0.0124,0.012,0.0112,0.0109,0.0109,0.0107,0.0106,0.0108,0.009,0.0087,0.0118,0.0118,0.0118,0,0,0.0131,0.0133,0.0131,0.0127,0.013,0.0127,0.0133,0.0131,0.0127,0.0132,0.0127,0.0126,0.0122,0.0114,0.0111,0.0114,0.0095,0.0105,0.0104,0.0106,0.0089,0.0086,0.0083,0.0117,0.0117,0.0117,0,0,0.0122,0.012,0.0117,0.0116,0.0119,0.012,0.0118,0.012,0.0119,0.0116,0.0116,0.0109,0.0108,0.01,0.0097,0.0083,0.0087,0.0086,0.0083,0.0065,0.0063,0.006,0.0054,0.0051,0.0086,0.0086,0.0086,0,0.0116,0.0116,0.0114,0.0112,0.0114,0.0116,0.0114,0.0109,0.0108,0.0106,0.0114,0.0103,0.01,0.0083,0.0083,0.008,0.0078,0.0091,0.0063,0.0061,0.0059,0.0053,0.005,0.0085,0.0085,0.0086,0.0086,0,0.0106,0.0108,0.0106,0.0106,0.0101,0.0102,0.0098,0.0094,0.0099,0.0097,0.0088,0.0083,0.0082,0.0074,0.0079,0.006,0.0066,0.0063,0.0069,0.0055,0.005,0.0047,0.0085,0.0085,0.0085,0.0085,0,0,0.0096,0.01,0.0103,0.011,0.0103,0.0104,0.009,0.0084,0.0083,0.0077,0.0071,0.0061,0.0068,0.0065,0.0062,0.0045,0.0029,0.0053,0.0053,0.005,0.0002,0.0025,0.0024,0.0025,0.0024,0.0023,0.0005,0,0.0096,0.0105,0.0098,0.0103,0.011,0.0102,0.0093,0.0084,0.0079,0.007,0.0057,0.0059,0.0061,0.0072,0.005,0.0031,0.0021,0.0035,0.0014,0.0013,0.0037,0.002,0.0021,0.0003,0.0002,0.0002,0.0002,0,0.0096,0.0105,0.0121,0.0122,0.0123,0.0129,0.0125,0.0118,0.0095,0.0092,0.008,0.0069,0.0047,0.0055,0.0014,0.0026,0.0021,0.0005,0.0003,0.0026,0.003,0.0019,-0.0004,-0.0004,-0.0003,-0.0003,-0.0002,0,0.0116,0.0119,0.0142,0.0144,0.0143,0.0156,0.016,0.0142,0.0143,0.0125,0.012,0.008,0.0076,0.0046,0.0023,0.0022,-0.0024,-0.0033,-0.0018,-0.0017,-0.0028,-0.0025,-0.0053,-0.0053,-0.0053,-0.0052,-0.0052,0,0.0124,0.0141,0.0168,0.0184,0.0216,0.02,0.0229,0.0218,0.0202,0.0186,0.0157,0.0116,0.0075,0.0039,0.0017,-0.0007,-0.0024,-0.002,-0.0022,-0.003,-0.0028,-0.003,-0.0027,-0.0053,-0.0053,-0.0053,-0.0053,0,0.0144,0.016,0.0196,0.022,0.0238,0.0272,0.0299,0.0299,0.0286,0.026,0.0259,0.0159,0.01,0.007,0.0011,-0.0003,-0.0033,-0.0028,-0.0024,-0.0026,-0.0014,-0.0012,-0.0032,-0.0031,-0.0031,-0.003,-0.003,0,0.0152,0.0178,0.0245,0.0284,0.031,0.0359,0.0379,0.0366,0.0342,0.0263,0.0224,0.0169,0.0107,0.0043,-0.0003,-0.0021,-0.0018,-0.0022,-0.0029,-0.0013,-0.0014,-0.0012,-0.001,-0.0029,-0.0029,-0.0029,-0.0029,0,0.0169,0.0212,0.0245,0.0327,0.0377,0.0406,0.0419,0.0397,0.034,0.0341,0.0215,0.0163,0.0091,0.0021,0.0037,0.0007,-0.0022,-0.0017,-0.0018,-0.0026,-0.001,-0.0011,-0.0009,-0.0027,-0.0027,-0.0027,-0.0028,0,0.0191,0.022,0.0278,0.0348,0.0399,0.0395,0.0417,0.0367,0.0345,0.0247,0.0194,0.0118,0.0073,0.0033,0.0014,0.0025,0.0013,0.0013,0.0009,0.0007,0.0027,0.0053,0.0051,0,0,0,0,0,0.021,0.0232,0.0284,0.0342,0.039,0.0426,0.0391,0.0386,0.0325,0.0259,0.0234,0.0168,0.011,0.0042,0.006,0.001,0.001,0.0028,0.0008,-0.0017,-0.0019,-0.0,0,0,0,0,0,0,0.0208,0.0264,0.027,0.0311,0.0363,0.0393,0.0375,0.035,0.0291,0.0244,0.0207,0.0208,0.0146,0.0146,0.0084,0.0075,0.0065,0.001,0.001,-0.0016,-0.0018,-0.002,-0.0001,0,0,0,0,0]}]]